Weather History for KNFL - August, 2013

Change the Weather History Date:

Wednesday, August 7, 2013

  Actual Average Record
Temperature  
Mean Temperature 76 °F -  
Max Temperature 91 °F 91 °F 103 °F (1960)
Min Temperature 62 °F 53 °F 41 °F (1975)
Cooling Degree Days 12    
Growing Degree Days 26 (Base 50)    
Moisture  
Dew Point 31 °F    
Average Humidity 20    
Maximum Humidity 35    
Minimum Humidity 9    
Precipitation  
Precipitation 0.00 in - - ()
Sea Level Pressure  
Sea Level Pressure 29.91 in    
Wind  
Wind Speed 8 mph (West)    
Max Wind Speed 17 mph    
Max Gust Speed 23 mph    
Visibility 10 miles    
Events      
Averages and records for this station are not official NWS values.
T = Trace of Precipitation, MM = Missing Value Source: NWS Daily Summary

Daily Weather History Graph

Daily Weather History Graph

Search for Another Location

Airport or City:

Trip Planner

Search our weather history database for the weather conditions in past years. The results will help you decide how hot, cold, wet, or windy it might be!

Date:

Astronomy

Aug. 07, 2013 Rise Set
Actual Time 6:00 AM PDT 8:00 PM PDT
Civil Twilight 5:30 AM PDT 8:29 PM PDT
Nautical Twilight 4:55 AM PDT 9:05 PM PDT
Astronomical Twilight 4:16 AM PDT 9:43 PM PDT
Moon 6:53 AM PDT (8/7) 8:10 PM PDT (8/7)
Length of Visible Light 14h 58m
Length of Day
13h 59m
New Moon, 1% of the Moon is Illuminated
Aug 7
New Moon
Aug 14
First Quarter
Aug 20
Full
Aug 28
Last Quarter
Sep 5
New

Hourly Weather History & Observations

Time (PDT) Temp. Dew Point Humidity Pressure Visibility Wind Dir Wind Speed Gust Speed Precip Events Conditions
12:56 AM 73.0 °F 39.0 °F 29% 29.89 in 10.0 mi WSW 9.2 mph - N/A   Clear
1:56 AM 72.0 °F 37.9 °F 29% 29.89 in 10.0 mi West 10.4 mph - N/A   Clear
2:56 AM 71.1 °F 37.0 °F 29% 29.90 in 10.0 mi WSW 8.1 mph - N/A   Clear
3:56 AM 66.9 °F 36.0 °F 32% 29.91 in 10.0 mi South 5.8 mph - N/A   Clear
4:56 AM 68.0 °F 33.1 °F 27% 29.91 in 10.0 mi SW 8.1 mph - N/A   Clear
5:56 AM 62.1 °F 34.0 °F 35% 29.92 in 10.0 mi SSE 3.5 mph - N/A   Clear
6:15 AM 62.6 °F 33.8 °F 34% 30.01 in 10.0 mi South 4.6 mph - N/A   Partly Cloudy
6:56 AM 66.0 °F 34.0 °F 30% 29.94 in 10.0 mi South 5.8 mph - N/A   Scattered Clouds
7:56 AM 73.0 °F 34.0 °F 24% 29.94 in 10.0 mi Calm Calm - N/A   Scattered Clouds
8:56 AM 80.1 °F 33.1 °F 18% 29.95 in 10.0 mi West 11.5 mph - N/A   Partly Cloudy
9:56 AM 82.0 °F 30.0 °F 15% 29.94 in 10.0 mi WNW 9.2 mph - N/A   Scattered Clouds
10:56 AM 84.0 °F 28.9 °F 14% 29.94 in 10.0 mi WNW 6.9 mph 16.1 mph N/A   Scattered Clouds
11:56 AM 88.0 °F 28.9 °F 12% 29.93 in 10.0 mi NNW 9.2 mph - N/A   Scattered Clouds
12:56 PM 88.0 °F 30.0 °F 12% 29.92 in 10.0 mi West 8.1 mph 16.1 mph N/A   Scattered Clouds
1:56 PM 89.1 °F 28.9 °F 12% 29.90 in 10.0 mi West 8.1 mph - N/A   Scattered Clouds
2:56 PM 90.0 °F 28.9 °F 11% 29.89 in 10.0 mi Calm Calm - N/A   Scattered Clouds
3:56 PM 91.0 °F 27.0 °F 10% 29.87 in 10.0 mi NW 10.4 mph - N/A   Scattered Clouds
4:56 PM 91.9 °F 27.0 °F 10% 29.85 in 10.0 mi NW 8.1 mph - N/A   Scattered Clouds
5:56 PM 91.0 °F 25.0 °F 9% 29.84 in 10.0 mi North 4.6 mph - N/A   Mostly Cloudy
6:56 PM 88.0 °F 28.9 °F 12% 29.85 in 10.0 mi WNW 17.3 mph 23.0 mph N/A   Mostly Cloudy
7:56 PM 82.9 °F 32.0 °F 16% 29.86 in 10.0 mi WNW 17.3 mph - N/A   Mostly Cloudy
8:56 PM 79.0 °F 30.9 °F 17% 29.88 in 10.0 mi WNW 17.3 mph - N/A   Scattered Clouds
9:56 PM 75.0 °F 28.9 °F 18% 29.91 in 10.0 mi WNW 10.4 mph - N/A   Scattered Clouds
10:56 PM 73.0 °F 28.9 °F 20% 29.92 in 10.0 mi WNW 6.9 mph - N/A   Scattered Clouds
11:56 PM 71.1 °F 28.0 °F 20% 29.94 in 10.0 mi NNW 5.8 mph - N/A   Clear